Regional Weather Roundup
Issued by NWS

Home | Current Version | Previous Version | Text Only | Print | Product List | Glossary Off
Versions: 1 2 3 4 5 6 7 8 9 10 11 12 13 14 15 16 17 18 19 20 21 22 23 24 25 26 27 28 29 30 31 32 33 34 35 36 37 38 39 40 41 42 43 44 45 46 47 48 49 50

000
ASUS44 KMEG 110010
RWRTN
TENNESSEE HOURLY STATE WEATHER ROUNDUP
NATIONAL WEATHER SERVICE MEMPHIS TN
600 PM CST SUN DEC 10 2017

TNZ002-004-019-021-049-052-054-088>092-110100-
WEST TENNESSEE

CITY           SKY/WX    TMP DP  RH WIND       PRES   REMARKS
MEMPHIS INTL   CLEAR     48  30  49 S9        30.17S
NWS MEMPHIS      N/A     48 N/A N/A MISG        N/A
JACKSON        CLEAR     45  26  47 SW8       30.16R
DYERSBURG      CLEAR     48  28  46 SW6       30.14R
SOMERVILLE     CLEAR     46  28  49 S8        30.16S
COVINGTON      CLEAR     45  28  53 SW9       30.16R
UNION CITY     CLEAR     45  28  53 CALM      30.13R
BOLIVAR        CLEAR     45  25  45 S5        30.17R
PARIS          CLEAR     41  25  52 SW7       30.12R
HUNTINGDON     CLEAR     46  25  42 SW8       30.12S
LEXINGTON      CLEAR     43  25  49 SW8       30.15R
SAVANNAH       CLEAR     41  25  52 S7        30.17S
$$

TNZ008-025-027-028-033-062-065-066-110100-
NORTH MIDDLE TENNESSEE

CITY           SKY/WX    TMP DP  RH WIND       PRES   REMARKS
NASHVILLE      CLEAR     44  20  38 S7        30.14R
PORTLAND       CLEAR     43  19  39 SW5       30.11R
CLARKSVILLE    CLEAR     44  19  36 SW3       30.12R
SMYRNA         CLEAR     42  21  43 S5        30.15R
COOKEVILLE     CLEAR     37  23  56 S8        30.12S WCI  31
GALLATIN       CLEAR     43  21  42 VRB6      30.14R
CROSSVILLE     CLEAR     35  16  45 SW3       30.11R
$$

TNZ061-075-076-078-094-096-097-110100-
SOUTH MIDDLE TENNESSEE

CITY           SKY/WX    TMP DP  RH WIND       PRES   REMARKS
FAYETTEVILLE   CLEAR     43  21  42 SW6       30.16R
TULLAHOMA      CLEAR     39  21  48 S7        30.13S WCI  34
WINCHESTER     CLEAR     37  21  52 S3        30.16S
MCMINNVILLE    CLEAR     39  23  52 SW5       30.13R
COLUMBIA       CLEAR     41  21  45 SW7       30.14R
SHELBYVILLE    CLEAR     39  21  48 SW6       30.15R WCI  35
$$

TNZ017-018-042-046-047-110100-
NORTHEAST TENNESSEE

CITY           SKY/WX    TMP DP  RH WIND       PRES   REMARKS
TRI CITIES     PTCLDY    32  19  58 SW6       30.11S WCI  26
ELIZABETHTON   CLEAR     28  23  80 CALM      30.12S
$$

TNZ012-013-036-069-073-074-110100-
CENTRAL EAST TENNESSEE

CITY           SKY/WX    TMP DP  RH WIND       PRES   REMARKS
KNOXVILLE      MOCLDY    38  25  59 SW10      30.13S WCI  31
OAK RIDGE      PTCLDY    39  21  48 SW3       30.15R
DOWNTOWN KNOXV CLEAR     39  21  48 W6        30.15R WCI  35
GATLINBURG     PTCLDY    39  19  45 SW5       30.13S
MORRISTOWN     CLEAR     36  19  51 SW5       30.11S WCI  32
JACKSBORO      CLEAR     34  21  60 CALM      30.13F
$$

TNZ083-085-099-110100-
SOUTHEAST TENNESSEE

CITY           SKY/WX    TMP DP  RH WIND       PRES   REMARKS
CHATTANOOGA    PTCLDY    41  20  43 CALM      30.18F
DAYTON         MOCLDY    41  23  48 S6        30.15R
$$

SKY/WX REPORTED AS FAIR MEANS FEW OR NO CLOUDS BELOW
12 THOUSAND FEET.





USA.gov is the U.S. government's official web portal to all federal, state and local government web resources and services.